Regional Weather Roundup
Issued by NWS

Home | Current Version | Previous Version | Text Only | Print | Product List | Glossary On
Versions: 1 2 3 4 5 6 7 8 9 10 11 12 13 14 15 16 17 18 19 20 21 22 23 24 25 26 27 28 29 30 31 32 33 34 35 36 37 38 39 40 41 42 43 44 45 46 47 48 49 50
000
ASUS43 KMKX 201300
RWRWI

WISCONSIN REGIONAL WEATHER ROUNDUP
NATIONAL WEATHER SERVICE MILWAUKEE/SULLIVAN WI
800 AM CDT FRI OCT 20 2017

NOTE: "FAIR" INDICATES FEW OR NO CLOUDS BELOW 12,000 FEET WITH NO
SIGNIFICANT WEATHER AND/OR OBSTRUCTIONS TO VISIBILITY.

WIZ001-002-006>008-014>016-023>028-201400-
NORTHWEST WISCONSIN

CITY           SKY/WX    TMP DP  RH WIND       PRES   REMARKS
SUPERIOR ARPT  CLEAR     37  37  98 CALM      29.86S
ASHLAND        CLEAR     54  44  69 S10       29.90R
HAYWARD        CLEAR     51  44  77 S5        29.92S
SIREN          CLEAR     55  48  77 S9        29.88F
CUMBERLAND     CLEAR     43  41  93 SE5       29.93F
RICE LAKE      CLEAR     47  42  82 SE5       29.95S
CHETEK         CLEAR     46  43  88 E9        29.95S
LADYSMITH      CLEAR     50  44  78 SE6       29.98S
EAU CLAIRE     NOT AVBL
MENOMONIE      CLEAR     48  45  90 E7        29.95F
NEW RICHMOND   CLEAR     54  47  78 S9        29.91F
OSCEOLA        CLEAR     51  48  87 SE7       29.93S
$$

WIZ003>005-009-010-017-018-201400-
NORTH CENTRAL WISCONSIN

CITY           SKY/WX    TMP DP  RH WIND       PRES   REMARKS
MANITOWISH WTR CLEAR     42  42  99 S3        29.97S
ARBOR VITAE    CLEAR     52  45  77 S8        29.98S
WOODRUFF       CLEAR     52  45  77 S8        29.98S
RHINELANDER    CLEAR     54  46  74 SW10      30.01S
EAGLE RIVER    CLEAR     44  38  78 CALM      29.99F
LAND O LAKES   CLEAR     48  41  76 S3        30.00S
PHILLIPS       CLEAR     51  45  80 S6        29.97S
TOMAHAWK       CLEAR     42  38  88 CALM      30.01S
MEDFORD        CLEAR     43  40  88 S7        30.00S
MERRILL        CLEAR     39  37  93 CALM      30.02S
$$

WIZ029-030-035-036-043>047-201400-
CENTRAL WISCONSIN

CITY           SKY/WX    TMP DP  RH WIND       PRES   REMARKS
WAUSAU         CLEAR     46  41  82 SE5       30.02S
MOSINEE        CLEAR     46  45  93 S9        30.04S
MARSHFIELD     CLEAR     47  43  86 S6        30.02R
STEVENS POINT  CLEAR     46  42  86 S5        30.05R
WAUPACA        CLEAR     44  41  90 CALM      30.06S
WAUTOMA        CLEAR     39  37  92 CALM        N/A
WISC RAPIDS    CLEAR     52  46  80 S6        30.05R
CAMP DOUGLAS   NOT AVBL
$$

WIZ011>013-019>022-031-037>040-048>050-201400-
NORTHEAST WISCONSIN

CITY           SKY/WX    TMP DP  RH WIND       PRES   REMARKS
ANTIGO         CLEAR     43  39  86 S6        30.04S
SHAWANO        CLEAR     49  40  71 CALM      30.05S
OCONTO         CLEAR     50  42  73 CALM      30.06R
STURGEON BAY   CLEAR     53  41  63 S10       30.07S
GREEN BAY      CLEAR     53  47  79 S7        30.07R
MANITOWOC      CLEAR     49  39  68 S5        30.10S
APPLETON       CLEAR     52  41  66 S6        30.06S
CLINTONVILLE   NOT AVBL
OSHKOSH        CLEAR     53  45  74 S10       30.08R
$$

WIZ032>034-041-042-053>061-201400-
SOUTHWEST WISCONSIN

CITY           SKY/WX    TMP DP  RH WIND       PRES   REMARKS
LA CROSSE      CLEAR     57  51  80 S9        30.02S
SPARTA         CLEAR     50  47  89 S3        30.04S
VIROQUA        CLEAR     54  51  89 S8        30.05S
BOSCOBEL       CLEAR     43  41  93 CALM      30.07S
PRAIRIE DU CHI CLEAR     56  48  75 CALM      30.06S
PLATTEVILLE    CLEAR     53  51  93 S10       30.10R
$$

WIZ056-057-062-063-064-067-068-201400-
SOUTH CENTRAL WISCONSIN

CITY           SKY/WX    TMP DP  RH WIND       PRES   REMARKS
REEDSBURG      CLEAR     54  48  81 S5        30.06S
BARABOO/DELLS  CLEAR     50  44  80 CALM      30.07S
LONE ROCK      NOT AVBL
MINERAL POINT  CLEAR     50  50 100 SE7       30.09S
MADISON        PTCLDY    52  47  83 S7        30.10R
MIDDLETON      CLEAR     53  47  81 S6        30.10S
WATERTOWN      CLEAR     48  47  95 CALM      30.11S
MONROE         CLEAR     52  46  82 S9        30.11S
JANESVILLE     CLEAR     52  46  82 S3        30.12R
$$

WIZ051-052-058>065-066-070>072-201400-
SOUTHEAST WISCONSIN

CITY           SKY/WX    TMP DP  RH WIND       PRES   REMARKS
MILWAUKEE      PTCLDY    54  46  74 S5        30.14S
WAUKESHA       CLEAR     52  45  76 S8        30.14S
MILWAUKEE/TIMM CLEAR     46  37  71 CALM      30.13S
RACINE         CLEAR     55  48  77 SW8       30.16R
BURLINGTON     CLEAR     43  43 100 CALM      30.14R
KENOSHA        CLEAR     50  45  83 SW5       30.15R
FOND DU LAC    CLEAR     59  46  62 S9        30.09S
SHEBOYGAN      CLEAR     48  43  82 SW7       30.10S
WEST BEND      CLEAR     46  41  81 CALM      30.11S
JUNEAU         CLEAR     51  46  80 S6        30.12R
$$

LSZ147-162-201400-
LAKE SUPERIOR

STATION/POSITION TIME  TEMP    WIND        PRES    WAVE
                       AIR SEA DIR/SP/G            HT/PER
                 (UTC) (F)     (DEG/KT/KT) (MB)    (FT/S)
W MID LAKE BUOY  1150   55 52              1011.8S   1/ 4
DEVILS ISLAND    1200   57     190/  5/  6 1011.9S
SAXON HARBOR     1240   60     200/ 10/ 14 1011.5S
$$

LMZ867-665-643>646-201400-
LAKE MICHIGAN

STATION/POSITION TIME  TEMP    WIND        PRES    WAVE
                       AIR SEA DIR/SP/G            HT/PER
                 (UTC) (F)     (DEG/KT/KT) (MB)    (FT/S)
S GREEN BAY BUOY 1230   56 58  190/ 12/ 14 1017.3F
N MID LAKE BUOY  1150   60 58  190/ 16/ 17 1018.4F   4/ 6
NORTHPORT PIER   1240   56     180/  5/  9 1017.6S
KEWAUNEE LAKESHO 1230   52     190/ 10/ 12 1017.7S
SHEBOYGAN LAKESH 1200   54     210/  7/  8 1019.3S
PORT WASHINGTON  1240   52     200/  3/  5 1020.7S
MILWAUKEE LAKESH 1230   56     210/  7/  7   N/A
S MID LAKE BUOY  1150   62 61  190/ 14/ 16 1021.2S   2/ 4
KENOSHA   LAKESH 1200   54     190/  4/  5 1020.7
$$

TC  - TEMPERATURE IN CELSIUS
VSB - VISIBILITY IN STATUTE MILES
WCI - WIND CHILL INDEX
HX  - HEAT INDEX




USA.gov is the U.S. government's official web portal to all federal, state and local government web resources and services.